COSMOS 2288 (GLONASS)

Satellite information

Favourite Embed

Satellite Type and Status

PAYLOADIN ORBIT

Key statistics

Satellite COSMOS 2288 (GLONASS) at a glance.

Uptime

11289

Days in orbit

Revolutions

≈ 2.1

Per day

Orbit

MEO

Medium Earth Orbit

Inclination

65.4

Latest

Satellite identification and parameters

Extended collection of information and parameters for COSMOS 2288 (GLONASS).

Object identification

Identified? True

Debris? False

Object name: COSMOS 2288 (GLONASS)

International designator: 1994-050C

Object number (NORAD): 23205

Object ID (CCSDS): 23205

Country: COMMONWEALTH OF INDEPENDENT STATES (CIS)

Current information (Y/N): Y

RCS size: LARGE

Orbital parameters

Period: 675.734 minutes

Inclination: 65.4127 deg

SMA: 25508.054 km

Apoapsis: 19135.794 km

Periapsis: 19124.045 km

RAAN: 213.4285 deg

Eccentricy: 0.0002303

Argument of periapsis: 294.5407 deg

Mean anomaly: 58.7023 deg

Mean motion: 2.13101624 rev/day

Mean motion (dot): 0.00000093 rev/day2

B* drag term: 0.0 1/REarth

Two-line elements (TLE)

Creation date: July 4, 2025, 6:39 p.m.

Reference frame: TEME

Reference center: EARTH

Epoch: July 4, 2025, 10:55 a.m. UTC

TLE line 0: 0 COSMOS 2288 (GLONASS)

TLE line 1: 1 23205U 94050C 25185.45505976 .00000093 00000-0 00000-0 0 9994

TLE line 2: 2 23205 65.4127 213.4285 0002303 294.5407 58.7023 2.13101624240419

Live tracking on map

Real-time ground track for satellite COSMOS 2288 (GLONASS).

In-orbit conjunctions

A list of the most updated potential collisions computed for object COSMOS 2288 (GLONASS).

Target Orbit TCA Probability of collision Miss distance Type
COSMOS 2294 (GLONASS) MEO 2025-06-25 08:57:23 TBA 4543.0 (m) PAYLOAD
COSMOS 2294 (GLONASS) MEO 2025-06-24 21:41:39 TBA 3395.0 (m) PAYLOAD
COSMOS 2294 (GLONASS) MEO 2025-06-24 10:25:55 TBA 2449.0 (m) PAYLOAD
COSMOS 2294 (GLONASS) MEO 2025-06-23 23:10:10 TBA 1723.0 (m) PAYLOAD
COSMOS 2294 (GLONASS) MEO 2025-06-23 11:54:26 TBA 1275.0 (m) PAYLOAD

Associated space launch

GLONASS navigation satellites

COSMOS 2288 (GLONASS) was lifted into orbit during the mission ‘Proton | Uragan 57 to 59’, on board a Proton space rocket.

The launch took place on Aug. 11, 1994, 3:27 p.m. from 81/23 (81L).

For more information about the launch, click the button.

Launch to space Proton | Uragan 57 to 59
Proton | Uragan 57 to 59

Agency: N/A

Status: Launch Successful

Launch date: Aug. 11, 1994, 3:27 p.m. UTC

Rocket: Proton

Launch pad: 81/23 (81L)

Location: Baikonur Cosmodrome, Republic of Kazakhstan

...

Latest news about this satellite

There are no fresh news available about this satellite. Check back as we update our databases every day.


Newsletter sign-up

Weekly statistics, charts and insights to help you stay on top of the space industry.